CHINASAT 3B

Last updated on Mon Jun 22 2026 00:03:08 GMT+0000 (Coordinated Universal Time)

1 64062U 25106A 26171.92420759 -.00000048 00000+0 00000+0 0 9998 2 64062 0.0388 160.1727 0003104 324.3980 284.5768 1.00271308 4095
UTC large
Height (km)
Speed (km/s)
/
Latitude / Longitude
Inclination (degrees)
Orbital Period (minutes)
Azimuth
Elevation
Range (km)
Doppler Factor

Next 0 passes for location: London (51.5072 / 0.1276)

No passes found over London.
CHINASAT 3B